Location: Barriada Artigas
(41.4345°N, 2.2197°E)
Time: 11:55:40
(UTC+00:00)

Daily predictions for brighter satellites

Satellite Brightness Start Highest point End
(mag) Time Altitude Azimuth Time Altitude Azimuth Time Altitude Azimuth
YAOGAN 6 2.6 16:46:38 10° SSE 16:50:12 57° ENE 16:53:44 10° N
Cosmos 1606 2.9 16:48:33 10° SSW 16:52:26 77° W 16:56:20 10° N
Cosmos 962 Rocket 4.5 16:49:03 10° N 16:55:20 79° E 17:01:30 10° S
Cosmos 2297 3.7 16:49:41 10° NNW 16:55:24 72° ENE 17:01:05 10° SSE
SL-16 R/B 2.3 16:51:03 10° SSW 16:56:42 83° WNW 17:02:25 10° NNE
CZ-4B R/B 2.7 16:57:25 10° NE 16:59:52 21° E 17:02:19 10° SSE
Landsat 5 3.8 16:56:37 10° N 17:01:07 82° WNW 17:05:37 10° SSW
BREEZE-M DEB (TANK) 2.4 16:58:31 10° WSW 17:01:34 48° NNW 17:03:26 10° NE
SMAP 3.1 16:59:46 10° SSE 17:04:21 60° ENE 17:08:57 10° N
USA 215 4.2 16:59:50 10° ENE 17:05:26 30° SE 17:11:00 10° S
Sich 1 3.7 17:05:02 10° NNW 17:09:20 61° W 17:13:35 10° S
Cosmos 1151 Rocket 2.9 17:06:36 10° S 17:10:50 71° E 17:15:05 10° NNE
CZ-4C R/B 4.1 17:08:33 10° N 17:12:04 48° WNW 17:15:32 10° SSW
Cosmos 1470 Rocket 3.9 17:10:10 10° N 17:14:15 40° ENE 17:18:20 10° SSE
CSL-04 DEB 4.4 17:12:35 10° NNE 17:16:47 76° ESE 17:21:03 10° S
Cosmos 1515 Rocket 3.9 17:14:46 10° SSE 17:18:53 42° E 17:23:02 10° NNE
Cosmos 864 Rocket 4.5 17:14:00 10° N 17:20:16 64° E 17:26:26 10° SSE
CZ-2C R/B 4.2 17:16:55 10° ESE 17:20:22 19° ENE 17:23:43 10° NNE
TIMED 4.5 17:17:56 10° SSW 17:22:17 83° ESE 17:26:41 10° NNE
Cosmos 482 Debris 2.9 17:21:22 10° NW 17:23:06 40° NNE 17:23:46 27° E
SL-8 Rocket 4.0 17:17:13 10° N 17:23:30 87° E 17:29:48 10° S
Cosmos 2341 Rocket 4.4 17:18:45 10° NNW 17:25:02 70° W 17:31:20 10° S
Cosmos 1238 Rocket 4.4 17:23:22 10° NNE 17:26:26 19° ENE 17:29:53 10° ESE
X-37B 0.7 17:24:27 10° W 17:27:36 63° NNW 17:29:28 22° ENE
COSMO-SKYMED 1 3.2 17:23:38 10° NNE 17:27:37 34° E 17:31:34 10° SSE
USA 281 4.1 17:22:26 10° ESE 17:27:42 26° NE 17:32:58 10° N
Cosmos 1689 Rocket 3.9 17:29:02 16° ESE 17:29:02 16° ESE 17:30:29 10° SE
Cosmos 1959 Rocket 4.5 17:22:42 10° N 17:29:06 79° E 17:35:26 10° S
SAR-Lupe-4 4.5 17:29:13 18° NE 17:31:09 29° E 17:34:18 10° SSE
Cosmos 2228 Rocket 4.0 17:27:40 10° SSE 17:31:32 28° E 17:34:29 15° NE
CORIOLIS 4.2 17:26:14 10° SSE 17:31:39 88° W 17:37:08 10° NNW
Meteor 1-4 Rocket 2.4 17:29:13 10° S 17:32:49 89° W 17:36:23 10° N
USA 81 4.1 17:27:44 10° N 17:33:02 88° W 17:38:19 10° S
H-2A R/B 3.3 17:35:17 19° ENE 17:35:17 19° ENE 17:38:45 10° NNE
Cosmos 1812 3.6 17:32:08 10° SSE 17:35:22 27° E 17:36:35 23° ENE
Cosmos 2285 Rocket 4.3 17:29:14 10° NNW 17:35:37 74° WSW 17:41:54 10° S
Cosmos 1939 Rocket 3.0 17:33:54 10° SE 17:37:36 44° ENE 17:41:21 10° N
USA 267 4.3 17:34:11 17° ENE 17:37:55 28° NNE 17:43:17 10° NW
Cosmos 1328 Rocket 4.0 17:34:30 10° SSW 17:38:47 64° W 17:43:07 10° N
Cosmos 1821 Rocket 4.4 17:33:16 10° N 17:39:08 40° ENE 17:45:02 10° SE
CZ-4 R/B 2.9 17:41:27 19° NE 17:41:27 19° NE 17:43:10 10° NNE
BREEZE-M DEB (TANK) 3.1 17:37:40 10° SW 17:41:43 33° SSE 17:42:53 24° ESE
Cosmos 44 Rocket 4.3 17:39:00 10° NNW 17:43:29 28° NE 17:45:09 24° ENE
IRS-1C Rocket 4.3 17:38:54 10° SE 17:43:56 48° ENE 17:49:00 10° N
Cosmos 1933 Rocket 3.6 17:39:57 10° N 17:44:23 60° E 17:48:45 10° SSE
Cosmos 1602 3.8 17:42:59 10° N 17:46:54 79° W 17:50:46 10° S
NOAA 11 4.2 17:42:15 10° SSE 17:47:40 84° WSW 17:53:09 10° NNW
Lacrosse 4 Rocket 3.0 17:44:54 10° SSE 17:46:59 18° ESE 17:46:59 18° ESE
SAR-Lupe-1 4.3 17:46:35 27° NE 17:48:09 45° E 17:51:36 10° S
Cosmos 1680 Rocket 4.1 17:43:29 10° SSE 17:48:11 34° E 17:50:19 25° ENE
CZ-4B R/B 4.0 17:43:49 10° S 17:48:59 51° W 17:54:09 10° NNW
SL-24 R/B 3.7 17:49:33 22° NNE 17:51:43 52° E 17:55:16 10° S
Cosmos 1603 3.6 17:46:41 10° SSW 17:52:17 75° ESE 17:56:56 15° NNE
CZ-2D R/B 3.4 17:50:47 10° SSE 17:54:27 48° ENE 17:58:09 10° N
Cosmos 1943 3.1 17:50:03 10° SSW 17:55:39 70° ESE 17:59:58 18° NNE
Cosmos 1538 Rocket 4.5 17:52:30 10° SSW 17:57:49 64° WNW 18:03:10 10° NNE
H-2A R/B 4.2 17:55:45 10° NNW 17:59:14 25° WNW 18:02:46 10° WSW
Cosmos 2369 Rocket 2.1 17:54:25 10° NNW 18:00:09 85° ENE 18:05:47 10° SSE
Cosmos 1782 3.8 17:57:25 10° SSW 18:01:13 46° W 18:05:05 10° N
Okean O Rocket 3.2 17:57:12 10° SSW 18:01:14 37° W 18:05:19 10° NNW
Cosmos 1943 Rocket 2.8 17:55:54 10° NNW 18:01:20 57° WSW 18:06:47 10° S
ATLAS CENTAUR R/B 4.5 17:41:07 10° NW 18:01:54 85° SW 18:09:02 10° SE
Cosmos 1461 3.8 17:58:24 10° S 18:02:28 33° ESE 18:02:44 33° ESE
Meteor 1-14 Rocket 4.4 17:56:32 10° NNW 18:02:33 83° W 18:08:31 10° S
Meteor 1-5 Rocket 4.2 17:56:50 10° N 18:02:40 60° ENE 18:08:16 10° SSE
Okean-O 2.9 17:58:37 10° SE 18:02:48 43° ENE 18:07:01 10° N
CENTAUR R/B 2.8 18:00:26 10° S 18:05:44 42° ESE 18:07:44 33° ENE
ISS -1.6 18:04:19 10° NNW 18:05:55 16° N 18:05:55 16° N
Cosmos 2112 Rocket 4.3 18:03:43 10° S 18:08:42 45° ESE 18:09:53 38° ENE
NOSS 3-2 (C) 3.5 18:08:37 10° S 18:13:50 46° ESE 18:15:09 39° E
ERS-2 3.2 18:10:45 12° N 18:14:01 43° WNW 18:17:29 10° SW
SKYMED 2 3.8 18:11:44 12° N 18:15:46 68° WNW 18:20:03 10° SSW
Cosmos 1437 Rocket 4.5 18:13:37 10° SSE 18:15:08 21° SSE 18:15:08 21° SSE
BREEZE-M DEB (TANK) 3.2 18:09:36 10° WSW 18:19:04 86° NW 18:19:59 54° NE
Cosmos 1869 Rocket 4.2 18:14:42 10° N 18:22:43 15° SSE 18:23:30 10° SSE
Meteor 1-27 Rocket 3.9 18:14:41 10° SSE 18:19:54 46° E 18:20:11 45° E
Meteor 1-10 Rocket 4.1 18:18:40 10° S 18:24:19 84° E 18:28:49 16° N
Lacrosse 5 rocket 3.7 18:25:21 10° NNW 18:25:36 10° NNW 18:25:50 10° NNW
FALCON 9 R/B 2.9 18:27:32 10° SW 18:28:30 17° SSW 18:28:30 17° SSW
CZ-4B R/B 4.1 18:29:50 10° NNW 18:31:57 17° WNW 18:34:07 10° WSW
DMSP B5D1-3 4.4 18:33:13 62° ESE 18:33:13 62° ESE 18:38:12 10° S
Gblst 52 Del rocket 4.3 18:30:24 10° SW 18:36:42 59° SE 18:37:18 56° ESE
NOSS 3-2 (A) 3.5 18:33:33 10° SW 18:39:07 71° NW 18:41:27 39° NNE
YAOGAN 1 4.2 18:46:28 25° NNW 18:46:28 25° NNW 18:48:18 10° NNW
Cosmos 1535 Rocket 4.3 18:40:35 10° N 18:46:41 72° E 18:52:47 10° SSE
USA 215 3.3 18:46:43 47° NE 18:48:48 77° NW 18:55:19 10° WSW
Cosmos 1656 Rocket 4.1 18:49:36 10° NNW 18:55:09 61° WSW 18:58:59 20° S
MOS 1 Rocket 4.0 18:52:44 29° N 18:55:30 64° WNW 19:00:45 10° SSW
USA 238 DEB 3.9 18:51:58 10° SW 18:58:28 64° NW 19:00:34 44° N
USA 238 3.9 18:52:02 10° SW 18:58:34 64° NW 19:00:39 44° N
CZ-2C R/B 3.8 18:55:03 10° S 18:59:54 49° W 19:04:36 10° NNW
X-37B 4.0 19:01:28 10° WNW 19:01:44 12° WNW 19:01:44 12° WNW
Cosmos 1934 Rocket 4.1 19:02:18 10° NNW 19:08:39 73° W 19:14:53 10° S
USA 281 3.5 19:05:11 10° SSE 19:11:41 66° WSW 19:18:14 10° NNW
H-2A R/B 3.1 19:15:55 39° NW 19:15:55 39° NW 19:19:20 10° NNW
CZ-4 R/B 4.1 19:17:28 14° NW 19:17:28 14° NW 19:18:18 10° NW
USA 267 3.7 19:21:32 51° NNW 19:21:32 51° NNW 19:26:35 10° NW
Lacrosse 4 Rocket 4.0 19:22:18 10° SW 19:23:20 17° WSW 19:23:20 17° WSW
CENTAUR R/B 3.8 19:50:49 10° WSW 19:54:58 35° WNW 19:54:58 35° WNW
